Погода в Аресибо

Пуэрто-Рико     18°28′18″N   66°43′22″W
темп.,
°C
ветер,
м/с
пор.,
м/с
влажн.,
%
обл.,
%
осадки,
мм/ч
давл.,
гПа
погр.,
м
8 мая, сб
сб823:00+23юв45830 0.0 1017317
02:00+22юв34840 0.0 1016149
05:00+22юв34840 0.0 1017168
08:00+24вюв34750 0.0 1018319
11:00+27св556321 0.0 1018945
14:00+27всв777232 1.6 1016530
17:00+27всв357047 4.3 1015379
20:00+25юв457932 5.4 1017169
9 мая, вс
вс923:00+23вюв46855 0.3 1019286
02:00+23юв46861 0.3 1017291
05:00+22юв34870 0.0 1017195
08:00+24вюв36823 0.0 1019404
11:00+28всв88688 0.0 10191072
14:00+27всв11127752 0.8 1016554
17:00+26всв11138096 2.6 1016495
20:00+25в81086100 5.5 1018406
10 мая, пн
пн1023:00+24вюв4684100 0.8 1019368
02:00+24юв3482100 0.8 1017275
05:00+24вюв4583100 0.1 1017276
08:00+25в5879100 0.1 1018507
11:00+27в7974100 0.1 1018855
14:00+26в7875100 0.7 1017764
17:00+27в81072100 0.1 1016815
20:00+25в61178100 0.1 1018637
11 мая, вт
вт1123:00+25в5979100 0.0 1018403
02:00+24в61184100 0.1 1016493
05:00+25в61284100 0.2 1016636
08:00+25в61180100 0.2 1017683
11:00+28в786792 0.0 10171061
14:00+29в8963100 0.0 1017850
17:00+27всв8878100 0.1 1016481
20:00+26в6885100 1.3 1017327
12 мая, ср
ср1223:00+25в5786100 0.3 1019400
02:00+24вюв5890100 0.4 1017376
05:00+24вюв5890100 0.1 1017415
08:00+26в7980100 0.1 1018793
11:00+28всв9106420 0.0 10171077
14:00+27св12127599 0.0 1016527
17:00+26всв121380100 0.4 1015632
20:00+25в91186100 0.6 1017622